| time (UTC) | temp F | wind direction | speed MPH | gust MPH | rain 1hr in | rain 24hr in | rain mn in | humidity % | barometer mb |
| 20260906191522 | 67 | 339 | 0.0 | 1.0 | 0.00 | 0.00 | 0.00 | 76 | 1031.1 |
| 20260906190531 | 67 | 339 | 0.0 | 1.0 | 0.00 | 0.00 | 0.00 | 75 | 1031.0 |
| 20260906185525 | 67 | 340 | 1.0 | 2.0 | 0.00 | 0.00 | 0.00 | 75 | 1030.9 |
| 20260906184521 | 67 | 33 | 0.0 | 1.0 | 0.00 | 0.00 | 0.00 | 76 | 1030.7 |
| 20260906183545 | 68 | 40 | 0.0 | 1.0 | 0.00 | 0.00 | 0.00 | 74 | 1030.6 |
| 20260906182537 | 69 | 303 | 1.0 | 2.0 | 0.00 | 0.00 | 0.00 | 72 | 1030.5 |
| 20260906181545 | 68 | 188 | 1.0 | 2.0 | 0.00 | 0.00 | 0.00 | 72 | 1030.4 |
| 20260906180537 | 69 | 3 | 0.0 | 1.0 | 0.00 | 0.00 | 0.00 | 71 | 1030.3 |
| 20260906175525 | 70 | 341 | 0.0 | 1.0 | 0.00 | 0.00 | 0.00 | 69 | 1030.1 |
| 20260906174517 | 70 | 346 | 1.0 | 2.0 | 0.00 | 0.00 | 0.00 | 68 | 1029.9 |
| 20260906173525 | 70 | 345 | 0.0 | 2.0 | 0.00 | 0.00 | 0.00 | 68 | 1029.7 |
| 20260906172517 | 72 | 337 | 1.0 | 1.0 | 0.00 | 0.00 | 0.00 | 66 | 1029.6 |
| 20260906171524 | 73 | 315 | 1.0 | 3.0 | 0.00 | 0.00 | 0.00 | 64 | 1029.5 |
| 20260906170517 | 73 | 319 | 1.0 | 2.0 | 0.00 | 0.00 | 0.00 | 63 | 1029.4 |
| 20260906165525 | 74 | 327 | 1.0 | 4.0 | 0.00 | 0.00 | 0.00 | 62 | 1029.4 |
| 20260906164551 | 76 | 293 | 1.0 | 2.0 | 0.00 | 0.00 | 0.00 | 58 | 1029.3 |
| 20260906163525 | 75 | 298 | 2.0 | 3.0 | 0.00 | 0.00 | 0.00 | 58 | 1029.2 |
| 20260906162516 | 76 | 320 | 1.0 | 3.0 | 0.00 | 0.00 | 0.00 | 57 | 1029.0 |
| 20260906161524 | 78 | 309 | 1.0 | 2.0 | 0.00 | 0.00 | 0.00 | 55 | 1029.1 |
| 20260906160517 | 80 | 311 | 2.0 | 6.0 | 0.00 | 0.00 | 0.00 | 51 | 1029.1 |
| 20260906155545 | 81 | 307 | 2.0 | 6.0 | 0.00 | 0.00 | 0.00 | 50 | 1029.1 |
| 20260906154551 | 80 | 310 | 4.0 | 8.0 | 0.00 | 0.00 | 0.00 | 51 | 1029.0 |
| 20260906153524 | 80 | 324 | 4.0 | 6.0 | 0.00 | 0.00 | 0.00 | 50 | 1029.0 |
| 20260906152516 | 80 | 325 | 5.0 | 8.0 | 0.00 | 0.00 | 0.00 | 49 | 1029.2 |
| 20260906151544 | 80 | 323 | 5.0 | 9.0 | 0.00 | 0.00 | 0.00 | 49 | 1029.0 |
| 20260906150517 | 81 | 334 | 5.0 | 11.0 | 0.00 | 0.00 | 0.00 | 49 | 1029.1 |
| 20260906145545 | 81 | 321 | 5.0 | 10.0 | 0.00 | 0.00 | 0.00 | 49 | 1029.0 |
| 20260906144517 | 81 | 322 | 5.0 | 13.0 | 0.00 | 0.00 | 0.00 | 49 | 1029.1 |
| 20260906143524 | 81 | 331 | 6.0 | 10.0 | 0.00 | 0.00 | 0.00 | 48 | 1029.1 |
| 20260906142530 | 81 | 322 | 8.0 | 14.0 | 0.00 | 0.00 | 0.00 | 48 | 1029.3 |
| 20260906141525 | 81 | 332 | 6.0 | 11.0 | 0.00 | 0.00 | 0.00 | 48 | 1029.3 |
| 20260906140517 | 81 | 326 | 5.0 | 10.0 | 0.00 | 0.00 | 0.00 | 48 | 1029.4 |
| 20260906135544 | 82 | 340 | 5.0 | 11.0 | 0.00 | 0.00 | 0.00 | 48 | 1029.4 |
| 20260906134528 | 81 | 333 | 8.0 | 11.0 | 0.00 | 0.00 | 0.00 | 50 | 1029.3 |
| 20260906133523 | 82 | 342 | 5.0 | 9.0 | 0.00 | 0.00 | 0.00 | 49 | 1029.4 |
| 20260906132531 | 81 | 333 | 5.0 | 13.0 | 0.00 | 0.00 | 0.00 | 49 | 1029.6 |
| 20260906131521 | 82 | 342 | 4.0 | 9.0 | 0.00 | 0.00 | 0.00 | 48 | 1029.7 |
| 20260906130531 | 81 | 357 | 3.0 | 8.0 | 0.00 | 0.00 | 0.00 | 50 | 1029.8 |
| 20260906125524 | 81 | 336 | 4.0 | 11.0 | 0.00 | 0.00 | 0.00 | 50 | 1030.0 |
| 20260906124531 | 80 | 329 | 5.0 | 10.0 | 0.00 | 0.00 | 0.00 | 51 | 1030.0 |
| 20260906123545 | 80 | 327 | 6.0 | 13.0 | 0.00 | 0.00 | 0.00 | 52 | 1030.1 |
| 20260906122523 | 80 | 343 | 4.0 | 9.0 | 0.00 | 0.00 | 0.00 | 53 | 1030.3 |
| 20260906121525 | 79 | 330 | 5.0 | 13.0 | 0.00 | 0.00 | 0.00 | 54 | 1030.3 |
| 20260906120521 | 80 | 346 | 4.0 | 8.0 | 0.00 | 0.00 | 0.00 | 53 | 1030.5 |
| 20260906115525 | 78 | 348 | 5.0 | 11.0 | 0.00 | 0.00 | 0.00 | 55 | 1030.6 |
| 20260906114517 | 79 | 350 | 4.0 | 8.0 | 0.00 | 0.00 | 0.00 | 54 | 1030.7 |
| 20260906113525 | 78 | 349 | 3.0 | 8.0 | 0.00 | 0.00 | 0.00 | 56 | 1030.6 |
| 20260906112557 | 77 | 9 | 3.0 | 9.0 | 0.00 | 0.00 | 0.00 | 58 | 1030.9 |
| 20260906111545 | 76 | 321 | 5.0 | 10.0 | 0.00 | 0.00 | 0.00 | 58 | 1031.0 |
| 20260906110517 | 76 | 341 | 4.0 | 8.0 | 0.00 | 0.00 | 0.00 | 59 | 1031.2 |
| 20260906105525 | 77 | 64 | 1.0 | 4.0 | 0.00 | 0.00 | 0.00 | 59 | 1031.3 |
| 20260906104517 | 75 | 4 | 2.0 | 7.0 | 0.00 | 0.00 | 0.00 | 61 | 1031.5 |
| 20260906103525 | 75 | 343 | 2.0 | 7.0 | 0.00 | 0.00 | 0.00 | 62 | 1031.6 |
| 20260906102529 | 74 | 350 | 2.0 | 6.0 | 0.00 | 0.00 | 0.00 | 63 | 1031.8 |
| 20260906101531 | 74 | 340 | 3.0 | 7.0 | 0.00 | 0.00 | 0.00 | 64 | 1031.8 |
| 20260906100531 | 73 | 333 | 4.0 | 8.0 | 0.00 | 0.00 | 0.00 | 65 | 1031.9 |
| 20260906095525 | 72 | 335 | 4.0 | 8.0 | 0.00 | 0.00 | 0.00 | 66 | 1032.2 |
| 20260906094537 | 72 | 7 | 3.0 | 9.0 | 0.00 | 0.00 | 0.00 | 67 | 1032.2 |
| 20260906093525 | 72 | 4 | 3.0 | 9.0 | 0.00 | 0.00 | 0.00 | 69 | 1032.4 |
| 20260906092517 | 70 | 334 | 4.0 | 8.0 | 0.00 | 0.00 | 0.00 | 71 | 1032.5 |
| 20260906091545 | 71 | 343 | 4.0 | 7.0 | 0.00 | 0.00 | 0.00 | 70 | 1032.7 |
| 20260906090537 | 70 | 339 | 3.0 | 8.0 | 0.00 | 0.00 | 0.00 | 71 | 1032.7 |
| 20260906085545 | 69 | 339 | 3.0 | 6.0 | 0.00 | 0.00 | 0.00 | 73 | 1032.8 |
| 20260906084531 | 69 | 335 | 3.0 | 7.0 | 0.00 | 0.00 | 0.00 | 74 | 1032.8 |
| 20260906083525 | 67 | 333 | 3.0 | 6.0 | 0.00 | 0.00 | 0.00 | 78 | 1033.0 |
| 20260906082517 | 68 | 339 | 2.0 | 4.0 | 0.00 | 0.00 | 0.00 | 77 | 1033.1 |
| 20260906081525 | 67 | 4 | 2.0 | 4.0 | 0.00 | 0.00 | 0.00 | 78 | 1033.1 |
| 20260906080517 | 66 | 1 | 1.0 | 3.0 | 0.00 | 0.00 | 0.00 | 79 | 1033.0 |
| 20260906075534 | 65 | 313 | 1.0 | 3.0 | 0.00 | 0.00 | 0.00 | 81 | 1033.2 |
| 20260906074530 | 64 | 330 | 2.0 | 4.0 | 0.00 | 0.00 | 0.00 | 84 | 1033.3 |
| 20260906073531 | 64 | 337 | 3.0 | 6.0 | 0.00 | 0.00 | 0.00 | 84 | 1033.2 |
| 20260906072553 | 64 | 46 | 2.0 | 3.0 | 0.00 | 0.00 | 0.00 | 85 | 1033.2 |
| 20260906071553 | 64 | 23 | 1.0 | 3.0 | 0.00 | 0.00 | 0.00 | 84 | 1033.5 |
| 20260906070523 | 64 | 351 | 1.0 | 2.0 | 0.00 | 0.00 | 0.00 | 86 | 1033.6 |
| 20260906065533 | 61 | 5 | 1.0 | 2.0 | 0.00 | 0.00 | 0.00 | 91 | 1033.6 |
| 20260906064523 | 61 | 48 | 1.0 | 2.0 | 0.00 | 0.00 | 0.00 | 92 | 1033.4 |
| 20260906063536 | 60 | 31 | 1.0 | 3.0 | 0.00 | 0.00 | 0.00 | 93 | 1033.4 |
| 20260906062521 | 59 | 328 | 3.0 | 4.0 | 0.00 | 0.00 | 0.00 | 95 | 1033.4 |
| 20260906061536 | 58 | 330 | 2.0 | 4.0 | 0.00 | 0.00 | 0.00 | 96 | 1033.5 |
| 20260906060523 | 58 | 20 | 1.0 | 2.0 | 0.00 | 0.00 | 0.00 | 95 | 1033.4 |
| 20260906055553 | 58 | 330 | 2.0 | 3.0 | 0.00 | 0.00 | 0.00 | 95 | 1033.3 |
| 20260906054523 | 58 | 344 | 1.0 | 2.0 | 0.00 | 0.00 | 0.00 | 95 | 1033.3 |
| 20260906053533 | 58 | 126 | 0.0 | 1.0 | 0.00 | 0.00 | 0.00 | 95 | 1033.1 |
| 20260906052523 | 58 | 126 | 0.0 | 1.0 | 0.00 | 0.00 | 0.00 | 95 | 1033.0 |
| 20260906051533 | 58 | 127 | 0.0 | 1.0 | 0.00 | 0.00 | 0.00 | 94 | 1033.1 |
| 20260906050523 | 59 | 0.0 | 0.0 | 0.00 | 0.00 | 0.00 | 94 | 1033.0 | |
| 20260906045533 | 58 | 0.0 | 0.0 | 0.00 | 0.00 | 0.00 | 94 | 1032.9 | |
| 20260906044523 | 58 | 122 | 1.0 | 2.0 | 0.00 | 0.00 | 0.00 | 95 | 1032.8 |
| 20260906043533 | 58 | 57 | 0.0 | 1.0 | 0.00 | 0.00 | 0.00 | 95 | 1033.0 |
| 20260906042523 | 59 | 0.0 | 0.0 | 0.00 | 0.00 | 0.00 | 94 | 1033.0 | |
| 20260906041533 | 59 | 162 | 1.0 | 2.0 | 0.00 | 0.00 | 0.00 | 94 | 1032.7 |
| 20260906040543 | 59 | 0.0 | 0.0 | 0.00 | 0.00 | 0.00 | 94 | 1032.8 | |
| 20260906035553 | 58 | 48 | 0.0 | 1.0 | 0.00 | 0.00 | 0.00 | 94 | 1032.7 |
| 20260906034531 | 58 | 49 | 0.0 | 1.0 | 0.00 | 0.00 | 0.00 | 95 | 1032.6 |
| 20260906033533 | 58 | 82 | 1.0 | 2.0 | 0.00 | 0.00 | 0.00 | 95 | 1032.6 |
| 20260906032543 | 58 | 93 | 1.0 | 1.0 | 0.00 | 0.00 | 0.00 | 95 | 1032.5 |
| 20260906031533 | 58 | 98 | 1.0 | 2.0 | 0.00 | 0.00 | 0.00 | 95 | 1032.6 |
| 20260906030603 | 58 | 0.0 | 0.0 | 0.00 | 0.00 | 0.00 | 95 | 1032.5 | |
| 20260906025533 | 58 | 209 | 0.0 | 1.0 | 0.00 | 0.00 | 0.00 | 95 | 1032.6 |
| 20260906024523 | 58 | 205 | 1.0 | 2.0 | 0.00 | 0.00 | 0.00 | 95 | 1032.6 |
| 20260906023533 | 58 | 0.0 | 0.0 | 0.00 | 0.00 | 0.00 | 95 | 1032.5 | |
| 20260906022523 | 58 | 0.0 | 0.0 | 0.00 | 0.00 | 0.00 | 95 | 1032.5 | |
| 20260906021613 | 58 | 97 | 0.0 | 1.0 | 0.00 | 0.00 | 0.00 | 95 | 1032.4 |
| 20260906020543 | 58 | 97 | 0.0 | 1.0 | 0.00 | 0.00 | 0.00 | 95 | 1032.6 |
| 20260906015613 | 59 | 201 | 0.0 | 1.0 | 0.00 | 0.00 | 0.00 | 94 | 1032.5 |
| 20260906014523 | 59 | 0.0 | 0.0 | 0.00 | 0.00 | 0.00 | 94 | 1032.5 | |
| 20260906013533 | 60 | 0.0 | 0.0 | 0.00 | 0.00 | 0.00 | 93 | 1032.4 | |
| 20260906012523 | 60 | 237 | 1.0 | 2.0 | 0.00 | 0.00 | 0.00 | 93 | 1032.4 |
| 20260906011533 | 60 | 0.0 | 0.0 | 0.00 | 0.00 | 0.00 | 93 | 1032.4 | |
| 20260906010543 | 60 | 355 | 0.0 | 1.0 | 0.00 | 0.00 | 0.00 | 93 | 1032.3 |
| 20260906005553 | 60 | 338 | 0.0 | 1.0 | 0.00 | 0.00 | 0.00 | 92 | 1032.4 |
| 20260906004603 | 61 | 332 | 1.0 | 2.0 | 0.00 | 0.00 | 0.00 | 91 | 1032.4 |
| 20260906003533 | 61 | 329 | 0.0 | 2.0 | 0.00 | 0.00 | 0.00 | 91 | 1032.4 |
| 20260906002521 | 61 | 0.0 | 0.0 | 0.00 | 0.00 | 0.00 | 91 | 1032.4 | |
| 20260906001533 | 60 | 334 | 0.0 | 1.0 | 0.00 | 0.00 | 0.00 | 92 | 1032.4 |
| 20260906000523 | 60 | 334 | 0.0 | 1.0 | 0.00 | 0.00 | 0.00 | 91 | 1032.3 |
| 20260905235533 | 61 | 339 | 1.0 | 2.0 | 0.00 | 0.00 | 0.00 | 91 | 1032.4 |
| 20260905234523 | 61 | 21 | 1.0 | 2.0 | 0.00 | 0.00 | 0.00 | 91 | 1032.3 |
| 20260905233533 | 61 | 21 | 1.0 | 2.0 | 0.00 | 0.00 | 0.00 | 90 | 1032.2 |
| 20260905232644 | 60 | 0.0 | 0.0 | 0.00 | 0.00 | 0.00 | 91 | 1032.2 | |
| 20260905231553 | 60 | 22 | 0.0 | 1.0 | 0.00 | 0.00 | 0.00 | 91 | 1032.2 |
| 20260905230517 | 61 | 18 | 0.0 | 1.0 | 0.00 | 0.00 | 0.00 | 90 | 1032.3 |
| 20260905225525 | 61 | 349 | 0.0 | 1.0 | 0.00 | 0.00 | 0.00 | 89 | 1032.2 |
| 20260905224517 | 61 | 264 | 1.0 | 2.0 | 0.00 | 0.00 | 0.00 | 89 | 1032.1 |
| 20260905223525 | 61 | 170 | 1.0 | 3.0 | 0.00 | 0.00 | 0.00 | 90 | 1032.1 |
| 20260905222517 | 61 | 284 | 0.0 | 2.0 | 0.00 | 0.00 | 0.00 | 90 | 1032.0 |
| 20260905221525 | 61 | 69 | 1.0 | 2.0 | 0.00 | 0.00 | 0.00 | 90 | 1032.1 |
| 20260905220517 | 60 | 0.0 | 0.0 | 0.00 | 0.00 | 0.00 | 91 | 1032.1 | |
| 20260905215525 | 61 | 13 | 0.0 | 1.0 | 0.00 | 0.00 | 0.00 | 89 | 1031.8 |
| 20260905214517 | 61 | 12 | 0.0 | 1.0 | 0.00 | 0.00 | 0.00 | 90 | 1031.9 |
| 20260905213525 | 62 | 347 | 0.0 | 1.0 | 0.00 | 0.00 | 0.00 | 88 | 1031.6 |
| 20260905212517 | 62 | 284 | 0.0 | 1.0 | 0.00 | 0.00 | 0.00 | 88 | 1031.7 |
| 20260905211525 | 62 | 345 | 0.0 | 1.0 | 0.00 | 0.00 | 0.00 | 87 | 1031.7 |
| 20260905210517 | 62 | 347 | 1.0 | 2.0 | 0.00 | 0.00 | 0.00 | 86 | 1031.7 |
| 20260905205545 | 62 | 315 | 0.0 | 1.0 | 0.00 | 0.00 | 0.00 | 87 | 1031.5 |
| 20260905204517 | 62 | 316 | 1.0 | 2.0 | 0.00 | 0.00 | 0.00 | 88 | 1031.6 |
| 20260905203545 | 63 | 348 | 1.0 | 3.0 | 0.00 | 0.00 | 0.00 | 85 | 1031.7 |
| 20260905202537 | 64 | 267 | 0.0 | 1.0 | 0.00 | 0.00 | 0.00 | 84 | 1031.6 |
| 20260905201521 | 64 | 248 | 2.0 | 2.0 | 0.00 | 0.00 | 0.00 | 85 | 1031.5 |
| 20260905200533 | 64 | 102 | 0.0 | 1.0 | 0.00 | 0.00 | 0.00 | 87 | 1031.6 |
| 20260905195525 | 65 | 190 | 0.0 | 1.0 | 0.00 | 0.00 | 0.00 | 84 | 1031.5 |
| 20260905194613 | 66 | 139 | 2.0 | 4.0 | 0.00 | 0.00 | 0.00 | 82 | 1031.4 |
| 20260905193525 | 65 | 255 | 1.0 | 2.0 | 0.00 | 0.00 | 0.00 | 84 | 1031.4 |
| 20260905192533 | 65 | 288 | 0.0 | 1.0 | 0.00 | 0.00 | 0.00 | 85 | 1031.2 |